Location: Newark
(55.7083°N, 13.1992°E)
Time: 12:48:37
(UTC+00:00)

Transit 4A - Pass Details

Date: 26 February 2020
Orbit: 871 x 973 km, 66.8° (Epoch: 05 April)

Event Time Altitude Azimuth Distance (km) Brightness Sun altitude
Exits shadow 00:38:38 24° 31° (NNE) 1,742 9.8 -40.8°
Drops below altitude 10° 00:40:58 10° 42° (NE) 2,531 10.8 -40.6°
Sets 00:43:32 0° 48° (NE) 3,475 11.7 -40.5°
